Regional Weather Roundup
Issued by NWS Sioux Falls, SD

Home | Current Version | Previous Version | Graphics & Text | Print | Product List | Glossary Off
Versions: 1 2 3 4 5 6 7 8 9 10 11 12 13 14 15 16 17 18 19 20 21 22 23 24 25 26 27 28 29 30 31 32 33 34 35 36 37 38 39 40 41 42 43 44 45 46 47 48 49 50

000
ASUS43 KFSD 310010
RWRFSD

WEATHER ROUNDUP FOR SE SOUTH DAKOTA/SW MINNESOTA/NW IOWA
NATIONAL WEATHER SERVICE SIOUX FALLS SD
700 PM CDT THU JUL 30 2015

NOTE: "FAIR" INDICATES FEW OR NO CLOUDS BELOW 12,000 FEET WITH NO
SIGNIFICANT WEATHER AND OR OBSTRUCTIONS TO VISIBILITY.


SDZ038>040-050-052>070-310100-
SOUTHEAST SOUTH DAKOTA

CITY           SKY/WX    TMP DP  RH WIND       PRES   REMARKS
BROOKINGS      SUNNY     82  57  42 W7        30.11F
CHAMBERLAIN    SUNNY     88  48  25 N3        30.11F
6HR MIN TEMP:  84; 6HR MAX TEMP:  89;

HURON          SUNNY     87  57  35 W5        30.07F
6HR MIN TEMP:  83; 6HR MAX TEMP:  89;

MADISON        FAIR      82  57  42 W6        30.12F
MITCHELL       SUNNY     89  61  38 N3        30.09F
6HR MIN TEMP:  85; 6HR MAX TEMP:  90;

SIOUX FALLS    MOSUNNY   84  59  42 W7        30.10F
6HR MIN TEMP:  83; 6HR MAX TEMP:  87;

WINNER         FAIR      91  49  23 NW7       30.13F
YANKTON        SUNNY     88  64  45 N3        30.07F
$$

MNZ071-072-080-081-089-090-097-098-310100-
SOUTHWEST MINNESOTA

CITY           SKY/WX    TMP DP  RH WIND       PRES   REMARKS
FAIRMONT       SUNNY     82  59  44 W6        30.08F
JACKSON        SUNNY     82  59  44 W9        30.10F
LUVERNE        SUNNY     84  63  48 NW5       30.11S
MARSHALL       SUNNY     82  57  42 W9        30.08F
6HR MIN TEMP:  82; 6HR MAX TEMP:  86;

MONTEVIDEO     SUNNY     84  59  42 NW3       30.05F
PIPESTONE      SUNNY     81  61  50 W6        30.11F
REDWOOD FALLS  SUNNY     84  58  40 W10       30.04F
TRACY          SUNNY     82  63  51 CALM      30.08F
WINDOM         SUNNY     82  63  51 W6        30.09F
WORTHINGTON    SUNNY     81  63  54 W7        30.11F
$$

IAZ001>003-012>014-020>022-031-032-NEZ013-014-SDZ071-310100-
NORTHWEST IOWA

CITY           SKY/WX    TMP DP  RH WIND       PRES   REMARKS
CHEROKEE       SUNNY     83  69  63 W6        30.10F
DENISON        HAZE      81  66  61 SW7       30.10F VSB 3/4
ESTHERVILLE    SUNNY     81  63  54 W8        30.09F
LE MARS        SUNNY     84  68  58 W6        30.10F
ORANGE CITY    SUNNY     82  66  57 W3        30.11S
SHELDON        SUNNY     82  68  61 CALM      30.09F
SIOUX CITY     SUNNY     85  69  58 SW6       30.09F
6HR MIN TEMP:  83; 6HR MAX TEMP:  88;

SPENCER        SUNNY     85  64  49 W6        30.10F
6HR MIN TEMP:  84; 6HR MAX TEMP:  87;

STORM LAKE     SUNNY     82  68  61 W6        30.12F
$$

ABBREVIATIONS USED IN REMARKS
   TC - TEMPERATURE IN CELSIUS
  WCI - WIND CHILL INDEX
   HX - HEAT INDEX
  VSB - VISIBILITY



USA.gov is the U.S. government's official web portal to all federal, state and local government web resources and services.